JIA5173 KDCA-KDTW

Flight info

Callsign JIA5173
Flight time 1h 10m
Altitude 38000
Route HORTO4 BUFFR Q178 KOZAR KLYNK3
Aircraft CRJ9/M-SDFGIRWY/S

Departure

Time 2026-04-25 21:02
Airport Ronald Reagan Washington National Airport (KDCA)

Arrival

Time 2026-04-25 22:12
Airport Detroit Metropolitan Wayne County Airport (KDTW)
Time Latitude Longitude Altitude Speed Heading
2026-04-25 20:44 38.85740 -77.04329 20 ft 0 kts 341°
2026-04-25 20:53 38.85731 -77.04324 20 ft 2 kts 341°
2026-04-25 20:54 38.85718 -77.04319 20 ft 2 kts 341°
2026-04-25 20:54 38.85704 -77.04318 20 ft 2 kts 21°
2026-04-25 20:54 38.85692 -77.04330 21 ft 1 kts 62°
2026-04-25 20:54 38.85691 -77.04336 21 ft 0 kts 75°
2026-04-25 20:55 38.85700 -77.04301 20 ft 6 kts 71°
2026-04-25 20:55 38.85710 -77.04266 19 ft 1 kts 71°
2026-04-25 20:55 38.85710 -77.04263 19 ft 0 kts 71°
2026-04-25 20:58 38.85712 -77.04256 19 ft 2 kts 72°
2026-04-25 20:58 38.85720 -77.04226 18 ft 4 kts 72°
2026-04-25 20:58 38.85723 -77.04214 18 ft 0 kts 72°
2026-04-25 20:58 38.85724 -77.04208 18 ft 3 kts 72°
2026-04-25 20:59 38.85757 -77.04163 16 ft 10 kts 11°
2026-04-25 20:59 38.85822 -77.04197 16 ft 10 kts 323°
2026-04-25 20:59 38.85874 -77.04248 16 ft 8 kts 322°
2026-04-25 20:59 38.85917 -77.04290 16 ft 7 kts 322°
2026-04-25 21:00 38.85959 -77.04331 16 ft 7 kts 322°
2026-04-25 21:00 38.85972 -77.04344 16 ft 6 kts 322°
2026-04-25 21:00 38.86074 -77.04369 15 ft 9 kts 58°
2026-04-25 21:01 38.86086 -77.04310 14 ft 6 kts 120°
2026-04-25 21:01 38.86066 -77.04283 14 ft 0 kts 142°
2026-04-25 21:01 38.85957 -77.04176 15 ft 55 kts 141°
2026-04-25 21:02 38.85458 -77.03687 14 ft 122 kts 142°
2026-04-25 21:02 38.84663 -77.02943 240 ft 151 kts 140°
2026-04-25 21:02 38.83782 -77.02194 832 ft 158 kts 153°
2026-04-25 21:02 38.82674 -77.02107 1530 ft 164 kts 183°
2026-04-25 21:03 38.81559 -77.02351 2021 ft 165 kts 181°
2026-04-25 21:03 38.80402 -77.02555 2228 ft 171 kts 182°
2026-04-25 21:03 38.79228 -77.02754 2492 ft 175 kts 183°
2026-04-25 21:03 38.77946 -77.02966 2734 ft 200 kts 184°
2026-04-25 21:04 38.76462 -77.03220 3236 ft 224 kts 189°
2026-04-25 21:04 38.75098 -77.04237 3811 ft 249 kts 228°
2026-04-25 21:04 38.74445 -77.06332 4523 ft 265 kts 266°
2026-04-25 21:04 38.74530 -77.08628 5328 ft 256 kts 269°
2026-04-25 21:05 38.74494 -77.10926 5821 ft 258 kts 266°
2026-04-25 21:05 38.74406 -77.13180 6379 ft 258 kts 265°
2026-04-25 21:05 38.74280 -77.15489 6914 ft 259 kts 264°
2026-04-25 21:05 38.74143 -77.17786 7400 ft 261 kts 264°
2026-04-25 21:06 38.74004 -77.20084 7931 ft 261 kts 264°
2026-04-25 21:06 38.73868 -77.22395 8431 ft 262 kts 267°
2026-04-25 21:06 38.74350 -77.24644 8880 ft 271 kts 301°
2026-04-25 21:06 38.74737 -77.25257 9042 ft 274 kts 310°
2026-04-25 21:07 38.77670 -77.27054 9785 ft 287 kts 335°
2026-04-25 21:07 38.79533 -77.27940 10336 ft 286 kts 335°
2026-04-25 21:07 38.81398 -77.28850 10953 ft 285 kts 335°
2026-04-25 21:07 38.83265 -77.29772 11267 ft 297 kts 334°
2026-04-25 21:08 38.85250 -77.30773 11538 ft 309 kts 332°
2026-04-25 21:08 38.87196 -77.31923 11837 ft 319 kts 331°
2026-04-25 21:08 38.89241 -77.33121 12156 ft 330 kts 331°
2026-04-25 21:08 38.91378 -77.34373 12469 ft 341 kts 332°
2026-04-25 21:09 38.95682 -77.36891 13826 ft 342 kts 332°
2026-04-25 21:09 38.97849 -77.38165 14348 ft 347 kts 331°
2026-04-25 21:09 39.00058 -77.39460 14972 ft 349 kts 331°
2026-04-25 21:10 39.02255 -77.40749 15654 ft 351 kts 331°
2026-04-25 21:10 39.04515 -77.42076 16138 ft 357 kts 331°
2026-04-25 21:10 39.06773 -77.43411 16820 ft 359 kts 331°
2026-04-25 21:10 39.09084 -77.44768 17350 ft 365 kts 331°
2026-04-25 21:11 39.11362 -77.46103 18025 ft 367 kts 331°
2026-04-25 21:11 39.13832 -77.47176 18573 ft 376 kts 339°
2026-04-25 21:11 39.16373 -77.48176 19116 ft 383 kts 339°
2026-04-25 21:11 39.18935 -77.49174 19746 ft 387 kts 338°
2026-04-25 21:12 39.21507 -77.50184 20373 ft 391 kts 339°
2026-04-25 21:12 39.24121 -77.51212 20988 ft 396 kts 338°
2026-04-25 21:12 39.26746 -77.52245 21622 ft 400 kts 338°
2026-04-25 21:12 39.27655 -77.52602 21807 ft 402 kts 338°
2026-04-25 21:13 39.32141 -77.54372 22832 ft 410 kts 338°
2026-04-25 21:13 39.34915 -77.55461 23456 ft 414 kts 340°
2026-04-25 21:13 39.37653 -77.56544 24166 ft 414 kts 337°
2026-04-25 21:13 39.40440 -77.57652 24672 ft 420 kts 338°
2026-04-25 21:14 39.43207 -77.58810 25313 ft 417 kts 332°
2026-04-25 21:14 39.45587 -77.60879 25669 ft 408 kts 308°
2026-04-25 21:14 39.47070 -77.63841 26299 ft 396 kts 290°
2026-04-25 21:14 39.48121 -77.67163 26843 ft 399 kts 289°
2026-04-25 21:15 39.49143 -77.70501 27533 ft 399 kts 287°
2026-04-25 21:15 39.50166 -77.73865 28083 ft 402 kts 287°
2026-04-25 21:15 39.51177 -77.77225 28585 ft 403 kts 287°
2026-04-25 21:15 39.52195 -77.80609 28894 ft 408 kts 286°
2026-04-25 21:16 39.53222 -77.84017 29297 ft 408 kts 286°
2026-04-25 21:16 39.54256 -77.87450 29592 ft 410 kts 287°
2026-04-25 21:16 39.55260 -77.90700 29904 ft 410 kts 287°
2026-04-25 21:16 39.56307 -77.94112 30503 ft 402 kts 287°
2026-04-25 21:17 39.57324 -77.97424 31159 ft 396 kts 288°
2026-04-25 21:17 39.58350 -78.00761 31687 ft 393 kts 287°
2026-04-25 21:17 39.59344 -78.04022 32048 ft 394 kts 288°
2026-04-25 21:17 39.60366 -78.07339 32368 ft 393 kts 285°
2026-04-25 21:18 39.61359 -78.10602 32716 ft 392 kts 286°
2026-04-25 21:18 39.62360 -78.13877 33067 ft 392 kts 286°
2026-04-25 21:18 39.63358 -78.17162 33347 ft 393 kts 285°
2026-04-25 21:18 39.64361 -78.20454 33645 ft 393 kts 285°
2026-04-25 21:19 39.65363 -78.23754 33873 ft 393 kts 285°
2026-04-25 21:19 39.66358 -78.27029 33886 ft 387 kts 285°
2026-04-25 21:19 39.68297 -78.33435 33904 ft 377 kts 285°
2026-04-25 21:20 39.69567 -78.37640 33881 ft 374 kts 285°
2026-04-25 21:20 39.72094 -78.46012 33870 ft 375 kts 285°
2026-04-25 21:21 39.73994 -78.52334 33866 ft 376 kts 285°
2026-04-25 21:21 39.75904 -78.58682 33905 ft 376 kts 285°
2026-04-25 21:22 39.77809 -78.65051 33889 ft 376 kts 285°
2026-04-25 21:22 39.79696 -78.71371 33975 ft 375 kts 285°
2026-04-25 21:23 39.81585 -78.77701 33869 ft 377 kts 284°
2026-04-25 21:23 39.83474 -78.84082 33848 ft 377 kts 285°
2026-04-25 21:24 39.85366 -78.90428 33850 ft 376 kts 284°
2026-04-25 21:24 39.87243 -78.96789 33859 ft 377 kts 284°
2026-04-25 21:25 39.89122 -79.03132 33860 ft 379 kts 283°
2026-04-25 21:25 39.91015 -79.09570 33840 ft 381 kts 284°
2026-04-25 21:26 39.92921 -79.16065 33842 ft 383 kts 283°
2026-04-25 21:26 39.94811 -79.22527 33850 ft 383 kts 284°
2026-04-25 21:27 39.96714 -79.29021 33865 ft 385 kts 283°
2026-04-25 21:27 39.98621 -79.35561 33865 ft 385 kts 283°
2026-04-25 21:28 40.00615 -79.42017 33858 ft 393 kts 292°
2026-04-25 21:28 40.03690 -79.47996 33886 ft 396 kts 296°
2026-04-25 21:29 40.06765 -79.53979 33884 ft 397 kts 296°
2026-04-25 21:29 40.09835 -79.59954 33893 ft 397 kts 296°
2026-04-25 21:30 40.12894 -79.65935 33891 ft 396 kts 295°
2026-04-25 21:30 40.15445 -79.70927 33894 ft 396 kts 295°
2026-04-25 21:31 40.19019 -79.77937 33902 ft 396 kts 295°
2026-04-25 21:31 40.22062 -79.83919 33900 ft 396 kts 295°
2026-04-25 21:32 40.25104 -79.89908 33894 ft 396 kts 295°
2026-04-25 21:32 40.28147 -79.95911 33899 ft 396 kts 295°
2026-04-25 21:33 40.31189 -80.01926 33907 ft 396 kts 295°
2026-04-25 21:33 40.34244 -80.07972 33905 ft 397 kts 295°
2026-04-25 21:34 40.37289 -80.14017 33908 ft 397 kts 296°
2026-04-25 21:34 40.40322 -80.20052 33910 ft 398 kts 296°
2026-04-25 21:35 40.43368 -80.26115 33914 ft 398 kts 296°
2026-04-25 21:35 40.46406 -80.32180 33916 ft 399 kts 296°
2026-04-25 21:36 40.49450 -80.38277 33917 ft 399 kts 296°
2026-04-25 21:36 40.52513 -80.44399 33915 ft 399 kts 296°
2026-04-25 21:37 40.54532 -80.48451 33916 ft 399 kts 296°
2026-04-25 21:37 40.58586 -80.56605 33915 ft 400 kts 296°
2026-04-25 21:38 40.61253 -80.62941 33902 ft 395 kts 291°
2026-04-25 21:38 40.62505 -80.66172 33627 ft 402 kts 290°
2026-04-25 21:38 40.63800 -80.69481 33214 ft 404 kts 290°
2026-04-25 21:39 40.65083 -80.72771 32862 ft 405 kts 290°
2026-04-25 21:39 40.66365 -80.76077 32519 ft 404 kts 291°
2026-04-25 21:39 40.67636 -80.79346 32191 ft 403 kts 291°
2026-04-25 21:39 40.68901 -80.82610 31863 ft 402 kts 291°
2026-04-25 21:40 40.70176 -80.85896 31529 ft 401 kts 291°
2026-04-25 21:40 40.71431 -80.89140 31200 ft 401 kts 291°
2026-04-25 21:40 40.72693 -80.92413 30880 ft 401 kts 291°
2026-04-25 21:40 40.73964 -80.95706 30533 ft 402 kts 291°
2026-04-25 21:41 40.75239 -80.98998 30217 ft 403 kts 291°
2026-04-25 21:41 40.76502 -81.02286 29903 ft 404 kts 291°
2026-04-25 21:41 40.77776 -81.05604 29599 ft 405 kts 291°
2026-04-25 21:41 40.79041 -81.08903 29282 ft 406 kts 292°
2026-04-25 21:42 40.80310 -81.12212 28972 ft 408 kts 292°
2026-04-25 21:42 40.81593 -81.15556 28703 ft 410 kts 292°
2026-04-25 21:42 40.82890 -81.18951 28339 ft 412 kts 293°
2026-04-25 21:42 40.84175 -81.22304 28026 ft 414 kts 293°
2026-04-25 21:43 40.85474 -81.25701 27734 ft 415 kts 294°
2026-04-25 21:43 40.86752 -81.29051 27429 ft 401 kts 294°
2026-04-25 21:43 40.87992 -81.32293 27096 ft 390 kts 294°
2026-04-25 21:43 40.89184 -81.35420 26890 ft 381 kts 294°
2026-04-25 21:44 40.90377 -81.38554 26707 ft 376 kts 294°
2026-04-25 21:44 40.91542 -81.41625 26529 ft 374 kts 295°
2026-04-25 21:44 40.93864 -81.47746 26152 ft 374 kts 295°
2026-04-25 21:45 40.95031 -81.50830 25993 ft 377 kts 295°
2026-04-25 21:45 40.95412 -81.51839 25923 ft 378 kts 295°
2026-04-25 21:45 40.97395 -81.57084 25649 ft 385 kts 296°
2026-04-25 21:45 40.98590 -81.60242 25472 ft 388 kts 296°
2026-04-25 21:46 40.99803 -81.63460 25306 ft 392 kts 296°
2026-04-25 21:46 41.01024 -81.66698 25126 ft 396 kts 295°
2026-04-25 21:46 41.02271 -81.70009 24970 ft 398 kts 296°
2026-04-25 21:46 41.03487 -81.73246 24809 ft 392 kts 296°
2026-04-25 21:47 41.04696 -81.76468 24598 ft 387 kts 296°
2026-04-25 21:47 41.05880 -81.79620 24441 ft 383 kts 296°
2026-04-25 21:47 41.07059 -81.82772 24274 ft 379 kts 296°
2026-04-25 21:47 41.08222 -81.85882 24085 ft 375 kts 296°
2026-04-25 21:48 41.09388 -81.88997 23927 ft 371 kts 297°
2026-04-25 21:48 41.10518 -81.92015 23944 ft 369 kts 296°
2026-04-25 21:48 41.11680 -81.95133 23973 ft 378 kts 297°
2026-04-25 21:48 41.12860 -81.98302 23956 ft 388 kts 297°
2026-04-25 21:49 41.14069 -82.01530 23959 ft 394 kts 296°
2026-04-25 21:49 41.15288 -82.04814 23945 ft 397 kts 296°
2026-04-25 21:49 41.16514 -82.08121 23952 ft 400 kts 297°
2026-04-25 21:49 41.17730 -82.11400 23990 ft 395 kts 297°
2026-04-25 21:50 41.18932 -82.14648 23951 ft 388 kts 297°
2026-04-25 21:50 41.20106 -82.17815 23938 ft 379 kts 297°
2026-04-25 21:50 41.21264 -82.20946 23965 ft 375 kts 297°
2026-04-25 21:50 41.22016 -82.22966 23948 ft 373 kts 298°
2026-04-25 21:51 41.24295 -82.26345 23942 ft 369 kts 322°
2026-04-25 21:51 41.26322 -82.28451 23955 ft 367 kts 322°
2026-04-25 21:51 41.28327 -82.30545 23948 ft 368 kts 322°
2026-04-25 21:51 41.30356 -82.32664 23971 ft 369 kts 322°
2026-04-25 21:52 41.32384 -82.34792 23943 ft 375 kts 322°
2026-04-25 21:52 41.34436 -82.36945 23563 ft 374 kts 322°
2026-04-25 21:52 41.36477 -82.39088 22908 ft 373 kts 322°
2026-04-25 21:52 41.38495 -82.41208 22194 ft 372 kts 322°
2026-04-25 21:53 41.40505 -82.43323 21448 ft 365 kts 323°
2026-04-25 21:53 41.42444 -82.45370 20624 ft 354 kts 323°
2026-04-25 21:53 41.44343 -82.47372 19854 ft 342 kts 323°
2026-04-25 21:53 41.46154 -82.49279 19175 ft 332 kts 323°
2026-04-25 21:54 41.47964 -82.51189 18396 ft 327 kts 324°
2026-04-25 21:54 41.49713 -82.53035 17638 ft 322 kts 324°
2026-04-25 21:54 41.51455 -82.54873 16879 ft 317 kts 324°
2026-04-25 21:54 41.53177 -82.56694 16115 ft 313 kts 324°
2026-04-25 21:55 41.54871 -82.58489 15356 ft 310 kts 324°
2026-04-25 21:55 41.56535 -82.60247 14590 ft 307 kts 324°
2026-04-25 21:55 41.58212 -82.62015 13820 ft 303 kts 324°
2026-04-25 21:55 41.59837 -82.63741 13254 ft 302 kts 325°
2026-04-25 21:56 41.61492 -82.65501 12699 ft 303 kts 324°
2026-04-25 21:56 41.62571 -82.66647 12273 ft 300 kts 324°
2026-04-25 21:56 41.64724 -82.68935 11509 ft 294 kts 324°
2026-04-25 21:56 41.66311 -82.70621 10999 ft 288 kts 325°
2026-04-25 21:57 41.67867 -82.72280 10665 ft 283 kts 325°
2026-04-25 21:57 41.69400 -82.73910 10358 ft 282 kts 326°
2026-04-25 21:57 41.70985 -82.75590 10112 ft 298 kts 325°
2026-04-25 21:57 41.72632 -82.77338 9906 ft 303 kts 325°
2026-04-25 21:58 41.74257 -82.79078 9663 ft 294 kts 325°
2026-04-25 21:58 41.75715 -82.80947 9333 ft 281 kts 316°
2026-04-25 21:58 41.76990 -82.82834 9027 ft 263 kts 317°
2026-04-25 21:58 41.78218 -82.84629 8928 ft 267 kts 317°
2026-04-25 21:59 41.79494 -82.86485 8968 ft 273 kts 316°
2026-04-25 21:59 41.80772 -82.88354 8976 ft 275 kts 316°
2026-04-25 21:59 41.82070 -82.90259 8969 ft 273 kts 316°
2026-04-25 22:00 41.84580 -82.93947 8920 ft 262 kts 317°
2026-04-25 22:00 41.85799 -82.95735 8928 ft 258 kts 317°
2026-04-25 22:00 41.87033 -82.97543 8954 ft 266 kts 316°
2026-04-25 22:00 41.87984 -82.99765 8929 ft 285 kts 289°
2026-04-25 22:01 41.88133 -83.02419 8985 ft 288 kts 278°
2026-04-25 22:01 41.88241 -83.05093 8717 ft 285 kts 279°
2026-04-25 22:01 41.88357 -83.07735 8200 ft 283 kts 279°
2026-04-25 22:01 41.88398 -83.08617 8001 ft 283 kts 279°
2026-04-25 22:02 41.88596 -83.12978 7139 ft 280 kts 279°
2026-04-25 22:02 41.88714 -83.15546 6696 ft 270 kts 279°
2026-04-25 22:02 41.88820 -83.17976 6480 ft 252 kts 280°
2026-04-25 22:02 41.88921 -83.20246 6268 ft 237 kts 280°
2026-04-25 22:03 41.89023 -83.22399 6073 ft 225 kts 280°
2026-04-25 22:03 41.89117 -83.24445 5962 ft 217 kts 280°
2026-04-25 22:03 41.89208 -83.26448 5968 ft 217 kts 281°
2026-04-25 22:03 41.89306 -83.28514 6005 ft 227 kts 280°
2026-04-25 22:04 41.89404 -83.30657 6001 ft 231 kts 280°
2026-04-25 22:04 41.89499 -83.32817 5995 ft 231 kts 279°
2026-04-25 22:04 41.89593 -83.34992 5992 ft 230 kts 280°
2026-04-25 22:04 41.89697 -83.37108 5990 ft 228 kts 280°
2026-04-25 22:05 41.90186 -83.39033 5966 ft 211 kts 316°
2026-04-25 22:05 41.91267 -83.40296 5997 ft 201 kts 330°
2026-04-25 22:05 41.92517 -83.41191 5576 ft 206 kts 341°
2026-04-25 22:05 41.93874 -83.41850 4998 ft 213 kts 345°
2026-04-25 22:06 41.95306 -83.42398 4453 ft 212 kts 348°
2026-04-25 22:06 41.96741 -83.42878 3880 ft 212 kts 349°
2026-04-25 22:06 41.98141 -83.43314 3527 ft 204 kts 350°
2026-04-25 22:06 41.99508 -83.43723 3305 ft 201 kts 351°
2026-04-25 22:07 42.00892 -83.44129 3138 ft 206 kts 351°
2026-04-25 22:07 42.01836 -83.44405 3033 ft 205 kts 351°
2026-04-25 22:07 42.03689 -83.44944 3001 ft 202 kts 351°
2026-04-25 22:07 42.05064 -83.45345 2998 ft 200 kts 351°
2026-04-25 22:08 42.06423 -83.45738 2997 ft 199 kts 351°
2026-04-25 22:08 42.07762 -83.46127 2998 ft 196 kts 351°
2026-04-25 22:08 42.09016 -83.46494 3040 ft 169 kts 351°
2026-04-25 22:08 42.10106 -83.46471 2919 ft 148 kts 23°
2026-04-25 22:09 42.10881 -83.45688 2798 ft 140 kts 39°
2026-04-25 22:09 42.11680 -83.44875 2631 ft 142 kts 33°
2026-04-25 22:09 42.12505 -83.44147 2431 ft 142 kts 31°
2026-04-25 22:09 42.13350 -83.43464 2234 ft 142 kts 29°
2026-04-25 22:10 42.14206 -83.42804 2037 ft 142 kts 28°
2026-04-25 22:10 42.15055 -83.42170 1857 ft 134 kts 27°
2026-04-25 22:10 42.15857 -83.41579 1656 ft 128 kts 27°
2026-04-25 22:10 42.16637 -83.41009 1477 ft 127 kts 27°
2026-04-25 22:11 42.17417 -83.40438 1307 ft 129 kts 27°
2026-04-25 22:11 42.18218 -83.39853 1139 ft 134 kts 27°
2026-04-25 22:11 42.19055 -83.39240 956 ft 139 kts 27°
2026-04-25 22:11 42.19894 -83.38628 765 ft 137 kts 26°
2026-04-25 22:12 42.20720 -83.38030 650 ft 128 kts 27°
2026-04-25 22:12 42.21410 -83.37524 638 ft 90 kts 28°
2026-04-25 22:12 42.21837 -83.37212 637 ft 48 kts 30°
2026-04-25 22:12 42.21909 -83.37155 637 ft 28 kts 30°
2026-04-25 22:13 42.22108 -83.36904 637 ft 14 kts 57°
2026-04-25 22:13 42.22118 -83.36791 637 ft 11 kts 137°
2026-04-25 22:13 42.22044 -83.36777 637 ft 10 kts 145°
2026-04-25 22:13 42.22001 -83.36688 637 ft 14 kts 119°
2026-04-25 22:14 42.21933 -83.36521 638 ft 26 kts 119°
2026-04-25 22:14 42.21844 -83.36303 638 ft 26 kts 119°
2026-04-25 22:14 42.21810 -83.36124 638 ft 18 kts 88°
2026-04-25 22:14 42.21814 -83.35954 638 ft 18 kts 89°
2026-04-25 22:15 42.21816 -83.35786 638 ft 17 kts 89°
2026-04-25 22:15 42.21850 -83.35675 638 ft 12 kts 36°
2026-04-25 22:15 42.21924 -83.35617 638 ft 12 kts 29°
2026-04-25 22:16 42.22089 -83.35496 638 ft 15 kts 28°
2026-04-25 22:16 42.22192 -83.35420 638 ft 18 kts 29°
2026-04-25 22:16 42.22299 -83.35334 638 ft 17 kts 38°
2026-04-25 22:16 42.22396 -83.35253 638 ft 15 kts 28°
2026-04-25 22:17 42.22484 -83.35188 638 ft 13 kts 29°
2026-04-25 22:17 42.22576 -83.35121 637 ft 17 kts 28°
2026-04-25 22:17 42.22691 -83.35036 635 ft 20 kts 29°
2026-04-25 22:17 42.22819 -83.34943 634 ft 20 kts 29°
2026-04-25 22:18 42.22930 -83.34862 634 ft 16 kts 26°
2026-04-25 22:18 42.23022 -83.34813 634 ft 5 kts 18°
2026-04-25 22:18 42.23030 -83.34809 634 ft 1 kts 18°
2026-04-25 22:18 42.23048 -83.34800 634 ft 3 kts 25°
2026-04-25 22:19 42.23063 -83.34767 634 ft 5 kts 91°
2026-04-25 22:19 42.23054 -83.34733 634 ft 6 kts 124°
2026-04-25 22:19 42.23005 -83.34674 634 ft 1 kts 141°
2026-04-25 22:19 42.23004 -83.34673 634 ft 0 kts 141°